START_TIME,STEP,MOV.,AL01,t_acc.,AL02,t_acc.,E37,t_acc.,H21,t_acc.
1979-07-01 12:19:16.660 ,7,0,,0,,0,,0,,0
1979-07-01 12:19:23.260 ,5,1,12.,24.0,0.,24.0,0.,24.0,0.,24.0
1979-07-01 12:19:47.260 ,0,0,0.,24.0,0.,24.0,2.,24.0,0.,24.0
1979-07-01 12:20:11.260 ,0,0,,0,,0,,0,,0
1979-07-01 12:20:35.260 ,0,0,0.,24.0,0.,24.0,0.,24.0,0.,24.0
1979-07-01 12:20:59.260 ,5,1,19.,24.0,0.,24.0,0.,24.0,0.,24.0
1979-07-01 12:21:23.260 ,1,1,0.,24.0,0.,24.0,0.,24.0,0.,24.0
1979-07-01 12:21:47.260 ,2,1,0.,24.0,0.,24.0,0.,24.0,0.,24.0
1979-07-01 12:22:11.260 ,6,1,0.,24.0,1.,24.0,0.,24.0,0.,24.0
1979-07-01 12:22:35.260 ,5,1,19.,24.0,0.,24.0,0.,24.0,0.,24.0
1979-07-01 12:22:59.260 ,1,1,0.,24.0,0.,24.0,0.,24.0,0.,24.0
1979-07-01 12:23:23.260 ,2,1,0.,24.0,0.,24.0,0.,24.0,0.,24.0
1979-07-01 12:23:47.260 ,6,1,0.,24.0,0.,24.0,0.,24.0,0.,24.0
1979-07-01 12:24:11.260 ,5,1,11.,24.0,0.,24.0,0.,24.0,0.,24.0
1979-07-01 12:24:35.260 ,1,1,0.,24.0,0.,24.0,1.,24.0,0.,24.0
1979-07-01 12:24:59.260 ,2,1,0.,24.0,0.,24.0,0.,24.0,0.,24.0
1979-07-01 12:25:23.260 ,6,1,0.,24.0,0.,24.0,0.,24.0,0.,24.0
1979-07-01 12:25:47.260 ,5,1,23.,24.0,0.,24.0,0.,24.0,0.,24.0
1979-07-01 12:26:11.260 ,1,1,1.,24.0,0.,24.0,1.,24.0,0.,24.0
1979-07-01 12:26:35.260 ,2,1,0.,24.0,0.,24.0,0.,24.0,0.,24.0
1979-07-01 12:26:59.260 ,6,1,0.,24.0,0.,24.0,0.,24.0,0.,24.0
1979-07-01 12:27:23.260 ,5,1,17.,24.0,0.,24.0,0.,24.0,0.,24.0
1979-07-01 12:27:47.260 ,1,1,0.,24.0,0.,24.0,0.,24.0,0.,24.0
1979-07-01 12:28:11.260 ,2,1,0.,24.0,0.,24.0,0.,24.0,0.,24.0
1979-07-01 12:28:35.260 ,6,1,0.,24.0,0.,24.0,0.,24.0,0.,24.0
1979-07-01 12:28:35.260 ,6,1,0.,24.0,0.,24.0,0.,24.0,0.,24.0
1979-07-01 12:28:59.260 ,5,1,14.,24.0,0.,24.0,0.,24.0,0.,24.0
1979-07-01 12:29:23.260 ,1,1,0.,24.0,0.,24.0,0.,24.0,0.,24.0
1979-07-01 12:29:47.260 ,0,0,0.,24.0,0.,24.0,0.,24.0,0.,24.0
1979-07-01 12:30:11.260 ,0,0,0.,24.0,0.,24.0,0.,24.0,0.,24.0
1979-07-01 12:30:35.260 ,5,1,12.,24.0,0.,24.0,1.,24.0,0.,24.0
1979-07-01 12:30:59.260 ,5,0,0.,24.0,0.,24.0,0.,24.0,0.,24.0
1979-07-01 12:31:23.260 ,4,1,0.,24.0,0.,24.0,0.,24.0,0.,24.0
1979-07-01 12:31:47.260 ,4,0,0.,24.0,0.,24.0,0.,24.0,0.,24.0
1979-07-01 12:32:11.260 ,3,1,0.,24.0,0.,24.0,1.,24.0,0.,24.0
1979-07-01 12:32:35.260 ,3,0,0.,24.0,0.,24.0,0.,24.0,0.,24.0
1979-07-01 12:32:59.260 ,2,1,1.,24.0,0.,24.0,1.,24.0,0.,24.0
1979-07-01 12:33:23.260 ,2,0,0.,24.0,1.,24.0,0.,24.0,0.,24.0
1979-07-01 12:33:47.260 ,1,1,0.,24.0,0.,24.0,0.,24.0,0.,24.0
1979-07-01 12:34:11.260 ,1,0,0.,24.0,0.,24.0,0.,24.0,0.,24.0
1979-07-01 12:34:35.260 ,0,1,0.,24.0,0.,24.0,1.,24.0,0.,24.0
1979-07-01 12:34:59.260 ,0,0,1.,24.0,1.,24.0,0.,24.0,0.,24.0
1979-07-01 12:35:23.260 ,0,1,1.,24.0,0.,24.0,1.,24.0,0.,24.0
1979-07-01 12:35:47.260 ,0,0,0.,24.0,0.,24.0,0.,24.0,0.,24.0
1979-07-01 12:36:11.260 ,1,1,0.,24.0,0.,24.0,0.,24.0,0.,24.0
1979-07-01 12:36:35.260 ,1,0,0.,24.0,0.,24.0,0.,24.0,0.,24.0
1979-07-01 12:36:59.260 ,2,1,0.,24.0,0.,24.0,0.,24.0,0.,24.0
1979-07-01 12:37:23.260 ,2,0,0.,24.0,0.,24.0,1.,24.0,0.,24.0
1979-07-01 12:37:47.260 ,3,1,0.,24.0,0.,24.0,0.,24.0,0.,24.0
1979-07-01 12:38:11.260 ,3,0,0.,24.0,0.,24.0,0.,24.0,0.,24.0
1979-07-01 12:38:35.260 ,4,1,1.,24.0,0.,24.0,0.,24.0,0.,24.0
1979-07-01 12:38:59.260 ,4,0,0.,24.0,0.,24.0,0.,24.0,0.,24.0
1979-07-01 12:39:23.260 ,5,1,0.,24.0,0.,24.0,0.,24.0,0.,24.0
1979-07-01 12:39:47.260 ,5,0,0.,24.0,0.,24.0,0.,24.0,0.,24.0
1979-07-01 12:40:11.260 ,6,1,1.,24.0,0.,24.0,0.,24.0,0.,24.0
1979-07-01 12:40:35.260 ,6,0,0.,24.0,0.,24.0,0.,24.0,0.,24.0
1979-07-01 12:40:59.260 ,7,1,12.,24.0,1.,24.0,1.,24.0,0.,24.0
1979-07-01 12:41:23.260 ,7,0,36.,24.0,0.,24.0,0.,24.0,0.,24.0
1979-07-01 12:41:47.260 ,7,1,28.,24.0,0.,24.0,0.,24.0,0.,24.0
1979-07-01 12:42:11.260 ,7,0,29.,24.0,0.,24.0,0.,24.0,0.,24.0
1979-07-01 12:42:35.260 ,6,1,33.,24.0,0.,24.0,0.,24.0,0.,24.0
1979-07-01 12:42:59.260 ,6,0,0.,24.0,0.,24.0,0.,24.0,0.,24.0
1979-07-01 12:43:23.260 ,5,1,0.,24.0,0.,24.0,0.,24.0,0.,24.0
1979-07-01 12:43:47.260 ,5,0,0.,24.0,1.,24.0,0.,24.0,0.,24.0
1979-07-01 12:44:11.260 ,4,1,0.,24.0,0.,24.0,0.,24.0,0.,24.0
1979-07-01 12:44:35.260 ,4,0,0.,24.0,0.,24.0,0.,24.0,0.,24.0
1979-07-01 12:44:59.260 ,3,1,0.,24.0,1.,24.0,0.,24.0,0.,24.0
1979-07-01 12:45:23.260 ,3,0,0.,24.0,0.,24.0,1.,24.0,0.,24.0
1979-07-01 12:45:47.260 ,2,1,1.,24.0,0.,24.0,0.,24.0,0.,24.0
1979-07-01 12:46:11.260 ,2,0,1.,24.0,0.,24.0,0.,24.0,0.,24.0
1979-07-01 12:46:35.260 ,1,1,0.,24.0,0.,24.0,0.,24.0,0.,24.0
1979-07-01 12:46:59.260 ,1,0,0.,24.0,0.,24.0,1.,24.0,0.,24.0
1979-07-01 12:47:23.260 ,0,1,0.,24.0,0.,24.0,0.,24.0,0.,24.0
1979-07-01 12:47:47.260 ,0,0,0.,24.0,0.,24.0,0.,24.0,0.,24.0
1979-07-01 12:48:11.260 ,0,1,0.,24.0,0.,24.0,0.,24.0,0.,24.0
1979-07-01 12:48:35.260 ,0,0,0.,24.0,0.,24.0,0.,24.0,0.,24.0
1979-07-01 12:48:59.260 ,1,1,0.,24.0,1.,24.0,0.,24.0,0.,24.0
1979-07-01 12:49:23.260 ,1,0,0.,24.0,0.,24.0,0.,24.0,0.,24.0
1979-07-01 12:49:47.260 ,2,1,0.,24.0,0.,24.0,0.,24.0,0.,24.0
1979-07-01 12:50:11.260 ,2,0,0.,24.0,0.,24.0,0.,24.0,0.,24.0
1979-07-01 12:50:35.260 ,3,1,0.,24.0,0.,24.0,0.,24.0,0.,24.0
1979-07-01 12:50:59.260 ,3,0,0.,24.0,0.,24.0,0.,24.0,0.,24.0
1979-07-01 12:51:23.260 ,4,1,0.,24.0,0.,24.0,0.,24.0,0.,24.0
1979-07-01 12:51:47.260 ,4,0,0.,24.0,0.,24.0,0.,24.0,0.,24.0
1979-07-01 12:52:11.260 ,5,1,0.,24.0,0.,24.0,0.,24.0,0.,24.0
1979-07-01 12:52:35.260 ,5,0,0.,24.0,0.,24.0,0.,24.0,0.,24.0
1979-07-01 12:53:47.260 ,0,0,8.,24.0,0.,24.0,0.,24.0,0.,24.0
1979-07-01 12:54:11.260 ,0,0,42.,24.0,0.,24.0,0.,24.0,0.,24.0
1979-07-01 12:54:35.260 ,7,1,29.,24.0,0.,24.0,0.,24.0,0.,24.0
1979-07-01 12:54:59.260 ,7,0,28.,24.0,0.,24.0,0.,24.0,0.,24.0
1979-07-01 12:55:23.260 ,6,1,22.,24.0,0.,24.0,0.,24.0,0.,24.0
1979-07-01 12:55:47.260 ,6,0,1.,24.0,0.,24.0,0.,24.0,0.,24.0
1979-07-01 12:56:11.260 ,5,1,0.,24.0,0.,24.0,0.,24.0,0.,24.0
1979-07-01 12:56:35.260 ,5,0,0.,24.0,0.,24.0,1.,24.0,0.,24.0
1979-07-01 12:56:59.260 ,4,1,1.,24.0,0.,24.0,0.,24.0,0.,24.0
1979-07-01 12:57:23.260 ,4,0,1.,24.0,0.,24.0,0.,24.0,0.,24.0
1979-07-01 12:57:47.260 ,3,1,0.,24.0,0.,24.0,0.,24.0,0.,24.0
1979-07-01 12:58:11.260 ,3,0,0.,24.0,0.,24.0,0.,24.0,0.,24.0
1979-07-01 12:58:35.260 ,2,1,0.,24.0,0.,24.0,0.,24.0,0.,24.0
1979-07-01 12:58:59.260 ,2,0,1.,24.0,0.,24.0,0.,24.0,0.,24.0
1979-07-01 12:59:23.260 ,1,1,0.,24.0,0.,24.0,1.,24.0,0.,24.0
1979-07-01 12:59:47.260 ,1,0,0.,24.0,0.,24.0,0.,24.0,0.,24.0
1979-07-01 13:00:11.260 ,0,1,0.,24.0,0.,24.0,0.,24.0,0.,24.0
1979-07-01 13:00:35.260 ,0,0,0.,24.0,0.,24.0,0.,24.0,0.,24.0
1979-07-01 13:00:59.260 ,0,1,1.,24.0,0.,24.0,0.,24.0,0.,24.0
1979-07-01 13:01:23.260 ,0,0,0.,24.0,0.,24.0,1.,24.0,0.,24.0
1979-07-01 13:01:47.260 ,1,1,0.,24.0,1.,24.0,0.,24.0,0.,24.0
1979-07-01 13:02:11.260 ,1,0,0.,24.0,0.,24.0,0.,24.0,0.,24.0
1979-07-01 13:02:35.260 ,2,1,0.,24.0,0.,24.0,0.,24.0,0.,24.0
1979-07-01 13:02:59.260 ,2,0,0.,24.0,1.,24.0,0.,24.0,0.,24.0
1979-07-01 13:03:23.260 ,3,1,0.,24.0,0.,24.0,0.,24.0,0.,24.0
1979-07-01 13:03:47.260 ,3,0,0.,24.0,0.,24.0,0.,24.0,0.,24.0
1979-07-01 13:04:11.260 ,4,1,1.,24.0,0.,24.0,1.,24.0,0.,24.0
1979-07-01 13:04:35.260 ,4,0,0.,24.0,0.,24.0,0.,24.0,0.,24.0
1979-07-01 13:04:59.260 ,5,1,0.,24.0,0.,24.0,0.,24.0,0.,24.0
1979-07-01 13:05:23.260 ,5,0,0.,24.0,0.,24.0,0.,24.0,0.,24.0
1979-07-01 13:05:47.260 ,6,1,0.,24.0,0.,24.0,0.,24.0,0.,24.0
1979-07-01 13:06:11.260 ,6,0,0.,24.0,0.,24.0,0.,24.0,0.,24.0
1979-07-01 13:06:35.260 ,7,0,9.,24.0,0.,24.0,0.,24.0,0.,24.0
1979-07-01 13:06:59.260 ,7,0,25.,24.0,0.,24.0,1.,24.0,0.,24.0
1979-07-01 13:07:23.260 ,5,1,18.,24.0,0.,24.0,0.,24.0,0.,24.0
1979-07-01 13:07:47.260 ,1,1,0.,24.0,0.,24.0,1.,24.0,0.,24.0
1979-07-01 13:08:11.260 ,2,1,1.,24.0,0.,24.0,1.,24.0,0.,24.0
1979-07-01 13:08:35.260 ,6,1,0.,24.0,0.,24.0,1.,24.0,0.,24.0
1979-07-01 13:08:59.260 ,5,1,12.,24.0,0.,24.0,1.,24.0,0.,24.0
1979-07-01 13:09:23.260 ,1,1,0.,24.0,0.,24.0,0.,24.0,0.,24.0
1979-07-01 13:09:47.260 ,2,1,0.,24.0,0.,24.0,0.,24.0,0.,24.0
1979-07-01 13:10:11.260 ,6,1,0.,24.0,0.,24.0,0.,24.0,0.,24.0
1979-07-01 13:10:35.260 ,5,1,20.,24.0,0.,24.0,0.,24.0,0.,24.0
1979-07-01 13:10:59.260 ,1,1,0.,24.0,0.,24.0,0.,24.0,0.,24.0
1979-07-01 13:11:23.260 ,2,1,0.,24.0,0.,24.0,1.,24.0,0.,24.0
1979-07-01 13:11:47.260 ,6,1,0.,24.0,0.,24.0,0.,24.0,0.,24.0
1979-07-01 13:12:11.260 ,5,1,17.,24.0,0.,24.0,0.,24.0,0.,24.0
1979-07-01 13:12:35.260 ,1,1,0.,24.0,0.,24.0,0.,24.0,0.,24.0
1979-07-01 13:12:59.260 ,2,1,1.,24.0,0.,24.0,0.,24.0,0.,24.0
1979-07-01 13:13:23.260 ,6,1,0.,24.0,0.,24.0,0.,24.0,0.,24.0
1979-07-01 13:13:47.260 ,5,1,12.,24.0,0.,24.0,0.,24.0,0.,24.0
1979-07-01 13:14:11.260 ,0,0,0.,24.0,0.,24.0,0.,24.0,0.,24.0
1979-07-01 13:15:37.660 ,0,0,,0,,0,,0,,0
1979-07-01 13:15:47.260 ,1,1,0.,24.0,1.,24.0,0.,24.0,0.,24.0
1979-07-01 13:16:11.260 ,2,1,0.,24.0,0.,24.0,0.,24.0,0.,24.0
1979-07-01 13:16:35.260 ,6,1,1.,24.0,1.,24.0,1.,24.0,0.,24.0
1979-07-01 13:16:59.260 ,5,1,15.,24.0,0.,24.0,0.,24.0,0.,24.0
1979-07-01 13:17:23.260 ,1,1,0.,24.0,0.,24.0,0.,24.0,0.,24.0
1979-07-01 13:17:47.260 ,0,0,0.,24.0,0.,24.0,0.,24.0,0.,24.0
1979-07-01 13:18:11.260 ,0,0,0.,24.0,0.,24.0,1.,24.0,0.,24.0
1979-07-01 13:18:35.260 ,5,1,16.,24.0,0.,24.0,0.,24.0,0.,24.0
1979-07-01 13:18:59.260 ,5,0,0.,24.0,0.,24.0,0.,24.0,0.,24.0
1979-07-01 13:19:23.260 ,4,1,0.,24.0,0.,24.0,0.,24.0,0.,24.0
1979-07-01 13:19:47.260 ,4,0,0.,24.0,0.,24.0,0.,24.0,0.,24.0
1979-07-01 13:20:11.260 ,3,1,0.,24.0,0.,24.0,0.,24.0,0.,24.0
1979-07-01 13:20:35.260 ,3,0,0.,24.0,0.,24.0,1.,24.0,0.,24.0
1979-07-01 13:20:59.260 ,2,1,0.,24.0,0.,24.0,0.,24.0,0.,24.0
1979-07-01 13:21:23.260 ,2,0,0.,24.0,0.,24.0,0.,24.0,0.,24.0
1979-07-01 13:21:47.260 ,1,1,0.,24.0,0.,24.0,0.,24.0,0.,24.0
1979-07-01 13:22:11.260 ,1,0,0.,24.0,0.,24.0,1.,24.0,0.,24.0
1979-07-01 13:22:35.260 ,0,1,0.,24.0,0.,24.0,0.,24.0,0.,24.0
1979-07-01 13:22:59.260 ,0,0,0.,24.0,0.,24.0,0.,24.0,0.,24.0
1979-07-01 13:23:23.260 ,0,1,0.,24.0,0.,24.0,0.,24.0,0.,24.0
1979-07-01 13:23:47.260 ,0,0,0.,24.0,0.,24.0,0.,24.0,0.,24.0
1979-07-01 13:24:11.260 ,0,0,1.,24.0,0.,24.0,0.,24.0,0.,24.0
1979-07-01 13:24:35.260 ,0,0,,0,,0,,0,,0
1979-07-01 13:25:47.260 ,0,0,0.,24.0,0.,24.0,0.,24.0,0.,24.0
1979-07-01 13:26:11.260 ,0,0,0.,24.0,0.,24.0,0.,24.0,0.,24.0
1979-07-01 13:26:35.260 ,4,1,0.,24.0,0.,24.0,0.,24.0,0.,24.0
1979-07-01 13:26:59.260 ,4,0,0.,24.0,0.,24.0,0.,24.0,0.,24.0
1979-07-01 13:27:23.260 ,5,1,1.,24.0,0.,24.0,0.,24.0,0.,24.0
1979-07-01 13:27:47.260 ,5,0,0.,24.0,0.,24.0,0.,24.0,0.,24.0
1979-07-01 13:28:11.260 ,6,1,1.,24.0,0.,24.0,1.,24.0,0.,24.0
1979-07-01 13:28:35.260 ,6,0,0.,24.0,0.,24.0,0.,24.0,0.,24.0
1979-07-01 13:28:59.260 ,7,1,5.,24.0,0.,24.0,0.,24.0,0.,24.0
1979-07-01 13:29:23.260 ,7,0,25.,24.0,0.,24.0,0.,24.0,0.,24.0
1979-07-01 13:29:47.260 ,7,1,35.,24.0,0.,24.0,0.,24.0,0.,24.0
1979-07-01 13:30:11.260 ,7,0,31.,24.0,0.,24.0,0.,24.0,0.,24.0
1979-07-01 13:30:35.260 ,6,1,20.,24.0,0.,24.0,1.,24.0,0.,24.0
1979-07-01 13:30:59.260 ,6,0,1.,24.0,0.,24.0,0.,24.0,0.,24.0
1979-07-01 13:31:23.260 ,5,1,0.,24.0,0.,24.0,0.,24.0,0.,24.0
1979-07-01 13:31:47.260 ,5,0,0.,24.0,0.,24.0,1.,24.0,0.,24.0
1979-07-01 13:32:11.260 ,4,1,0.,24.0,0.,24.0,0.,24.0,0.,24.0
1979-07-01 13:32:35.260 ,4,0,0.,24.0,0.,24.0,0.,24.0,0.,24.0
1979-07-01 13:32:59.260 ,3,1,0.,24.0,0.,24.0,0.,24.0,0.,24.0
1979-07-01 13:33:23.260 ,3,0,0.,24.0,0.,24.0,0.,24.0,0.,24.0
1979-07-01 13:33:47.260 ,2,1,0.,24.0,0.,24.0,1.,24.0,0.,24.0
1979-07-01 13:34:11.260 ,2,0,0.,24.0,1.,24.0,0.,24.0,0.,24.0
1979-07-01 13:34:35.260 ,1,1,0.,24.0,0.,24.0,0.,24.0,0.,24.0
1979-07-01 13:34:59.260 ,1,0,0.,24.0,0.,24.0,1.,24.0,0.,24.0
1979-07-01 13:35:23.260 ,0,1,0.,24.0,1.,24.0,0.,24.0,0.,24.0
1979-07-01 13:35:47.260 ,0,0,0.,24.0,0.,24.0,0.,24.0,0.,24.0
1979-07-01 13:36:11.260 ,0,1,0.,24.0,0.,24.0,0.,24.0,0.,24.0
1979-07-01 13:36:35.260 ,0,0,0.,24.0,0.,24.0,0.,24.0,0.,24.0
1979-07-01 13:36:59.260 ,1,1,0.,24.0,0.,24.0,0.,24.0,0.,24.0
1979-07-01 13:37:23.260 ,1,0,0.,24.0,0.,24.0,0.,24.0,0.,24.0
1979-07-01 13:37:47.260 ,2,1,0.,24.0,0.,24.0,1.,24.0,0.,24.0
1979-07-01 13:38:11.260 ,2,0,0.,24.0,0.,24.0,0.,24.0,0.,24.0
1979-07-01 13:38:35.260 ,3,1,0.,24.0,0.,24.0,0.,24.0,0.,24.0
1979-07-01 13:38:59.260 ,3,0,1.,24.0,0.,24.0,0.,24.0,0.,24.0
1979-07-01 13:39:23.260 ,4,1,0.,24.0,0.,24.0,0.,24.0,0.,24.0
1979-07-01 13:39:47.260 ,4,0,1.,24.0,0.,24.0,0.,24.0,0.,24.0
1979-07-01 13:40:11.260 ,5,1,0.,24.0,0.,24.0,0.,24.0,0.,24.0
1979-07-01 13:40:35.260 ,5,0,1.,24.0,0.,24.0,0.,24.0,0.,24.0
1979-07-01 13:40:59.260 ,6,1,0.,24.0,0.,24.0,1.,24.0,0.,24.0
1979-07-01 13:41:23.260 ,6,0,0.,24.0,0.,24.0,0.,24.0,0.,24.0
1979-07-01 13:41:47.260 ,7,1,5.,24.0,0.,24.0,1.,24.0,0.,24.0
1979-07-01 13:42:11.260 ,7,0,32.,24.0,0.,24.0,0.,24.0,0.,24.0
1979-07-01 13:42:35.260 ,7,1,28.,24.0,0.,24.0,0.,24.0,0.,24.0
1979-07-01 13:42:59.260 ,7,0,28.,24.0,0.,24.0,1.,24.0,0.,24.0
1979-07-01 13:43:23.260 ,6,1,25.,24.0,0.,24.0,1.,24.0,0.,24.0
1979-07-01 13:43:47.260 ,6,0,0.,24.0,0.,24.0,1.,24.0,0.,24.0
1979-07-01 13:44:11.260 ,5,1,0.,24.0,0.,24.0,0.,24.0,0.,24.0
1979-07-01 13:44:35.260 ,5,0,0.,24.0,0.,24.0,0.,24.0,0.,24.0
1979-07-01 13:44:59.260 ,4,1,1.,24.0,0.,24.0,2.,24.0,0.,24.0
1979-07-01 13:45:23.260 ,4,0,0.,24.0,1.,24.0,1.,24.0,0.,24.0
1979-07-01 13:45:47.260 ,3,1,0.,24.0,0.,24.0,0.,24.0,0.,24.0
1979-07-01 13:46:11.260 ,3,0,1.,24.0,0.,24.0,0.,24.0,0.,24.0
1979-07-01 13:46:35.260 ,2,1,0.,24.0,0.,24.0,1.,24.0,0.,24.0
1979-07-01 13:46:59.260 ,2,0,0.,24.0,0.,24.0,0.,24.0,0.,24.0
1979-07-01 13:47:23.260 ,1,1,0.,24.0,0.,24.0,0.,24.0,0.,24.0
1979-07-01 13:47:47.260 ,1,0,0.,24.0,0.,24.0,0.,24.0,0.,24.0
1979-07-01 13:48:11.260 ,0,1,0.,24.0,0.,24.0,0.,24.0,0.,24.0
1979-07-01 13:48:35.260 ,0,0,0.,24.0,0.,24.0,1.,24.0,0.,24.0
1979-07-01 13:48:59.260 ,0,1,1.,24.0,0.,24.0,0.,24.0,0.,24.0
1979-07-01 13:49:23.260 ,0,0,0.,24.0,0.,24.0,0.,24.0,0.,24.0
1979-07-01 13:49:47.260 ,1,1,0.,24.0,0.,24.0,0.,24.0,0.,24.0
1979-07-01 13:50:11.260 ,1,0,0.,24.0,0.,24.0,0.,24.0,0.,24.0
1979-07-01 13:50:35.260 ,2,1,1.,24.0,0.,24.0,0.,24.0,0.,24.0
1979-07-01 13:50:59.260 ,2,0,0.,24.0,0.,24.0,0.,24.0,0.,24.0
1979-07-01 13:51:23.260 ,3,1,0.,24.0,0.,24.0,0.,24.0,0.,24.0
1979-07-01 13:51:47.260 ,3,0,0.,24.0,0.,24.0,0.,24.0,0.,24.0
1979-07-01 13:52:11.260 ,4,1,0.,24.0,0.,24.0,0.,24.0,0.,24.0
1979-07-01 13:52:35.260 ,4,0,1.,24.0,0.,24.0,0.,24.0,0.,24.0
1979-07-01 13:52:59.260 ,5,1,0.,24.0,0.,24.0,1.,24.0,0.,24.0
1979-07-01 13:53:23.260 ,5,0,0.,24.0,0.,24.0,2.,24.0,0.,24.0
1979-07-01 13:53:47.260 ,6,1,0.,24.0,0.,24.0,0.,24.0,0.,24.0
1979-07-01 13:54:11.260 ,6,0,0.,24.0,0.,24.0,0.,24.0,0.,24.0
1979-07-01 13:54:35.260 ,7,0,7.,24.0,0.,24.0,0.,24.0,0.,24.0
1979-07-01 13:54:59.260 ,7,0,26.,24.0,0.,24.0,0.,24.0,0.,24.0
1979-07-01 13:55:23.260 ,5,1,12.,24.0,1.,24.0,0.,24.0,0.,24.0
1979-07-01 13:55:47.260 ,1,1,0.,24.0,0.,24.0,0.,24.0,0.,24.0
1979-07-01 13:56:11.260 ,2,1,0.,24.0,0.,24.0,0.,24.0,0.,24.0
1979-07-01 13:56:35.260 ,6,1,0.,24.0,0.,24.0,0.,24.0,0.,24.0
1979-07-01 13:56:59.260 ,5,1,12.,24.0,0.,24.0,0.,24.0,0.,24.0
1979-07-01 13:57:23.260 ,1,1,0.,24.0,0.,24.0,0.,24.0,0.,24.0
1979-07-01 13:57:47.260 ,2,1,1.,24.0,0.,24.0,0.,24.0,0.,24.0
1979-07-01 13:58:11.260 ,6,1,1.,24.0,0.,24.0,0.,24.0,0.,24.0
1979-07-01 13:58:35.260 ,5,1,19.,24.0,0.,24.0,1.,24.0,0.,24.0
1979-07-01 13:58:59.260 ,1,1,1.,24.0,0.,24.0,1.,24.0,0.,24.0
1979-07-01 13:59:23.260 ,2,1,0.,24.0,0.,24.0,0.,24.0,0.,24.0
1979-07-01 13:59:47.260 ,6,1,0.,24.0,0.,24.0,0.,24.0,0.,24.0
1979-07-01 14:00:11.260 ,5,1,16.,24.0,0.,24.0,1.,24.0,0.,24.0
1979-07-01 14:00:35.260 ,1,1,0.,24.0,0.,24.0,0.,24.0,0.,24.0
1979-07-01 14:00:59.260 ,2,1,0.,24.0,0.,24.0,0.,24.0,0.,24.0
1979-07-01 14:01:23.260 ,6,1,1.,24.0,0.,24.0,0.,24.0,0.,24.0
1979-07-01 14:01:47.260 ,5,1,17.,24.0,0.,24.0,2.,24.0,0.,24.0
1979-07-01 14:02:11.260 ,1,1,0.,24.0,0.,24.0,0.,24.0,0.,24.0
1979-07-01 14:02:35.260 ,2,1,0.,24.0,0.,24.0,1.,24.0,0.,24.0
1979-07-01 14:02:59.260 ,6,1,0.,24.0,0.,24.0,0.,24.0,0.,24.0
1979-07-01 14:03:23.260 ,5,1,9.,24.0,0.,24.0,0.,24.0,0.,24.0
1979-07-01 14:03:47.260 ,1,1,0.,24.0,0.,24.0,0.,24.0,0.,24.0
1979-07-01 14:04:11.260 ,2,1,0.,24.0,0.,24.0,0.,24.0,0.,24.0
1979-07-01 14:04:35.260 ,6,1,1.,24.0,0.,24.0,0.,24.0,0.,24.0
1979-07-01 14:04:59.260 ,5,1,14.,24.0,0.,24.0,0.,24.0,0.,24.0
1979-07-01 14:05:23.260 ,1,1,0.,24.0,0.,24.0,1.,24.0,0.,24.0
1979-07-01 14:05:47.260 ,0,0,0.,24.0,0.,24.0,0.,24.0,0.,24.0
1979-07-01 14:06:11.260 ,0,0,0.,24.0,0.,24.0,0.,24.0,0.,24.0
1979-07-01 14:06:35.260 ,5,1,19.,24.0,0.,24.0,1.,24.0,0.,24.0
1979-07-01 14:06:59.260 ,5,0,0.,24.0,0.,24.0,0.,24.0,0.,24.0
1979-07-01 14:07:23.260 ,4,1,0.,24.0,0.,24.0,0.,24.0,0.,24.0
1979-07-01 14:07:47.260 ,4,0,0.,24.0,0.,24.0,0.,24.0,0.,24.0
1979-07-01 14:08:11.260 ,3,1,0.,24.0,0.,24.0,0.,24.0,0.,24.0
1979-07-01 14:08:35.260 ,3,0,0.,24.0,0.,24.0,0.,24.0,0.,24.0
1979-07-01 14:08:59.260 ,2,1,1.,24.0,0.,24.0,0.,24.0,0.,24.0
1979-07-01 14:09:23.260 ,2,0,0.,24.0,0.,24.0,0.,24.0,0.,24.0
1979-07-01 14:09:47.260 ,1,1,0.,24.0,0.,24.0,0.,24.0,0.,24.0
1979-07-01 14:10:11.260 ,1,0,0.,24.0,0.,24.0,0.,24.0,0.,24.0
1979-07-01 14:10:35.260 ,0,1,0.,24.0,0.,24.0,0.,24.0,0.,24.0
1979-07-01 14:10:59.260 ,0,0,0.,24.0,0.,24.0,0.,24.0,0.,24.0
1979-07-01 14:11:23.260 ,0,1,1.,24.0,0.,24.0,1.,24.0,0.,24.0
1979-07-01 14:11:47.260 ,0,0,0.,24.0,0.,24.0,0.,24.0,0.,24.0
1979-07-01 14:12:11.260 ,1,1,0.,24.0,0.,24.0,0.,24.0,0.,24.0
1979-07-01 14:12:35.260 ,1,0,0.,24.0,1.,24.0,1.,24.0,0.,24.0
1979-07-01 14:12:59.260 ,2,1,0.,24.0,0.,24.0,0.,24.0,0.,24.0
1979-07-01 14:13:23.260 ,2,0,1.,24.0,0.,24.0,0.,24.0,0.,24.0
1979-07-01 14:13:47.260 ,3,1,0.,24.0,0.,24.0,0.,24.0,0.,24.0
1979-07-01 14:14:11.260 ,3,0,0.,24.0,0.,24.0,0.,24.0,0.,24.0
1979-07-01 14:14:35.260 ,4,1,1.,24.0,0.,24.0,0.,24.0,0.,24.0
1979-07-01 14:14:59.260 ,4,0,0.,24.0,0.,24.0,1.,24.0,0.,24.0
1979-07-01 14:15:23.260 ,5,1,0.,24.0,0.,24.0,0.,24.0,0.,24.0
1979-07-01 14:15:47.260 ,5,0,0.,24.0,0.,24.0,0.,24.0,0.,24.0
1979-07-01 14:16:11.260 ,6,1,0.,24.0,0.,24.0,0.,24.0,0.,24.0
1979-07-01 14:16:35.260 ,6,0,1.,24.0,0.,24.0,0.,24.0,0.,24.0
1979-07-01 14:16:59.260 ,7,1,7.,24.0,0.,24.0,0.,24.0,0.,24.0
1979-07-01 14:17:23.260 ,7,0,27.,24.0,0.,24.0,0.,24.0,0.,24.0
1979-07-01 14:17:47.260 ,7,1,31.,24.0,0.,24.0,0.,24.0,0.,24.0
1979-07-01 14:18:11.260 ,7,0,27.,24.0,0.,24.0,1.,24.0,0.,24.0
1979-07-01 14:18:35.260 ,6,1,29.,24.0,0.,24.0,0.,24.0,0.,24.0
1979-07-01 14:18:59.260 ,6,0,1.,24.0,0.,24.0,0.,24.0,0.,24.0
1979-07-01 14:19:23.260 ,5,1,0.,24.0,1.,24.0,0.,24.0,0.,24.0
1979-07-01 14:19:47.260 ,5,0,0.,24.0,0.,24.0,1.,24.0,0.,24.0
1979-07-01 14:20:11.260 ,4,1,1.,24.0,0.,24.0,0.,24.0,0.,24.0
1979-07-01 14:20:35.260 ,4,0,0.,24.0,0.,24.0,0.,24.0,0.,24.0
1979-07-01 14:20:59.260 ,3,1,0.,24.0,0.,24.0,0.,24.0,0.,24.0
1979-07-01 14:21:23.260 ,3,0,0.,24.0,0.,24.0,0.,24.0,0.,24.0
1979-07-01 14:21:47.260 ,2,1,0.,24.0,0.,24.0,1.,24.0,0.,24.0
1979-07-01 14:22:11.260 ,2,0,0.,24.0,0.,24.0,0.,24.0,0.,24.0
1979-07-01 14:22:35.260 ,1,1,0.,24.0,0.,24.0,0.,24.0,0.,24.0
1979-07-01 14:22:59.260 ,1,0,0.,24.0,0.,24.0,0.,24.0,0.,24.0
1979-07-01 14:23:23.260 ,0,1,0.,24.0,0.,24.0,0.,24.0,0.,24.0
1979-07-01 14:23:47.260 ,0,0,2.,24.0,0.,24.0,0.,24.0,0.,24.0
1979-07-01 14:24:11.260 ,0,1,0.,24.0,0.,24.0,0.,24.0,0.,24.0
1979-07-01 14:24:35.260 ,0,0,0.,24.0,0.,24.0,0.,24.0,0.,24.0
1979-07-01 14:24:59.260 ,1,1,0.,24.0,0.,24.0,0.,24.0,0.,24.0
1979-07-01 14:25:23.260 ,1,0,0.,24.0,0.,24.0,2.,24.0,0.,24.0
1979-07-01 14:25:47.260 ,2,1,0.,24.0,0.,24.0,1.,24.0,0.,24.0
1979-07-01 14:26:11.260 ,2,0,0.,24.0,0.,24.0,0.,24.0,0.,24.0
1979-07-01 14:26:35.260 ,3,1,0.,24.0,0.,24.0,0.,24.0,0.,24.0
1979-07-01 14:26:59.260 ,3,0,0.,24.0,0.,24.0,0.,24.0,0.,24.0
1979-07-01 14:27:23.260 ,4,1,0.,24.0,1.,24.0,1.,24.0,0.,24.0
1979-07-01 14:27:47.260 ,4,0,0.,24.0,0.,24.0,0.,24.0,0.,24.0
1979-07-01 14:28:59.260 ,0,0,0.,24.0,0.,24.0,1.,24.0,0.,24.0
1979-07-01 14:29:23.260 ,0,0,0.,24.0,1.,24.0,0.,24.0,0.,24.0
1979-07-01 14:29:47.260 ,7,1,8.,24.0,0.,24.0,0.,24.0,0.,24.0
1979-07-01 14:30:11.260 ,7,0,25.,24.0,0.,24.0,0.,24.0,0.,24.0
1979-07-01 14:30:35.260 ,7,1,28.,24.0,0.,24.0,0.,24.0,0.,24.0
1979-07-01 14:30:59.260 ,7,0,34.,24.0,0.,24.0,0.,24.0,0.,24.0
1979-07-01 14:31:23.260 ,6,1,25.,24.0,0.,24.0,0.,24.0,0.,24.0
1979-07-01 14:31:47.260 ,6,0,0.,24.0,0.,24.0,0.,24.0,0.,24.0
1979-07-01 14:32:11.260 ,5,1,2.,24.0,0.,24.0,0.,24.0,0.,24.0
1979-07-01 14:32:35.260 ,5,0,1.,24.0,0.,24.0,0.,24.0,0.,24.0
1979-07-01 14:32:59.260 ,4,1,0.,24.0,0.,24.0,0.,24.0,0.,24.0
1979-07-01 14:33:23.260 ,4,0,0.,24.0,0.,24.0,0.,24.0,0.,24.0
1979-07-01 14:33:47.260 ,3,1,0.,24.0,0.,24.0,0.,24.0,0.,24.0
1979-07-01 14:34:11.250 ,3,0,0.,24.0,0.,24.0,0.,24.0,0.,24.0
1979-07-01 14:34:35.260 ,2,1,0.,24.0,0.,24.0,0.,24.0,0.,24.0
1979-07-01 14:34:59.260 ,2,0,0.,24.0,0.,24.0,0.,24.0,0.,24.0
1979-07-01 14:35:23.260 ,1,1,0.,24.0,0.,24.0,0.,24.0,0.,24.0
1979-07-01 14:35:47.260 ,1,0,0.,24.0,0.,24.0,0.,24.0,0.,24.0
1979-07-01 14:36:11.260 ,0,1,0.,24.0,0.,24.0,1.,24.0,0.,24.0
1979-07-01 14:36:35.260 ,0,0,0.,24.0,0.,24.0,0.,24.0,0.,24.0
1979-07-01 14:36:59.260 ,0,1,0.,24.0,0.,24.0,0.,24.0,0.,24.0
1979-07-01 14:37:23.260 ,0,0,1.,24.0,0.,24.0,0.,24.0,0.,24.0
1979-07-01 14:37:47.260 ,1,1,0.,24.0,0.,24.0,0.,24.0,0.,24.0
1979-07-01 14:38:11.260 ,1,0,0.,24.0,0.,24.0,0.,24.0,0.,24.0
1979-07-01 14:38:35.260 ,2,1,0.,24.0,1.,24.0,1.,24.0,0.,24.0
1979-07-01 14:38:59.260 ,2,0,2.,24.0,0.,24.0,0.,24.0,0.,24.0
1979-07-01 14:39:23.260 ,3,1,0.,24.0,0.,24.0,0.,24.0,0.,24.0
1979-07-01 14:39:47.260 ,3,0,0.,24.0,0.,24.0,1.,24.0,0.,24.0
1979-07-01 14:40:11.260 ,4,1,0.,24.0,1.,24.0,0.,24.0,0.,24.0
1979-07-01 14:40:35.260 ,4,0,0.,24.0,0.,24.0,0.,24.0,0.,24.0
1979-07-01 14:40:59.260 ,5,1,0.,24.0,1.,24.0,0.,24.0,0.,24.0
1979-07-01 14:41:23.260 ,5,0,0.,24.0,0.,24.0,0.,24.0,0.,24.0
1979-07-01 14:41:47.260 ,6,1,2.,24.0,0.,24.0,0.,24.0,0.,24.0
1979-07-01 14:42:11.260 ,6,0,0.,24.0,0.,24.0,0.,24.0,0.,24.0
1979-07-01 14:42:35.260 ,7,0,10.,24.0,0.,24.0,0.,24.0,0.,24.0
1979-07-01 14:42:59.260 ,7,0,22.,24.0,0.,24.0,0.,24.0,0.,24.0
1979-07-01 14:44:11.260 ,0,0,0.,24.0,0.,24.0,1.,24.0,0.,24.0
1979-07-01 14:44:35.260 ,6,1,,0,,0,,0,,0
1979-07-01 14:44:59.260 ,5,1,11.,24.0,0.,24.0,0.,24.0,0.,24.0
1979-07-01 14:45:23.260 ,1,1,0.,24.0,0.,24.0,1.,24.0,0.,24.0
1979-07-01 14:45:47.260 ,2,1,0.,24.0,0.,24.0,0.,24.0,0.,24.0
1979-07-01 14:46:11.260 ,6,1,0.,24.0,0.,24.0,0.,24.0,0.,24.0
1979-07-01 14:46:35.260 ,5,1,21.,24.0,0.,24.0,0.,24.0,0.,24.0
1979-07-01 14:46:59.260 ,1,1,0.,24.0,0.,24.0,0.,24.0,0.,24.0
1979-07-01 14:47:23.260 ,2,1,0.,24.0,0.,24.0,0.,24.0,0.,24.0
1979-07-01 14:47:47.260 ,6,1,0.,24.0,0.,24.0,1.,24.0,0.,24.0
1979-07-01 14:48:11.260 ,5,1,14.,24.0,0.,24.0,1.,24.0,0.,24.0
1979-07-01 14:48:35.260 ,1,1,0.,24.0,0.,24.0,0.,24.0,0.,24.0
1979-07-01 14:48:59.260 ,2,1,0.,24.0,0.,24.0,1.,24.0,0.,24.0
1979-07-01 14:49:23.260 ,6,1,0.,24.0,0.,24.0,2.,24.0,0.,24.0
1979-07-01 14:49:47.260 ,5,1,15.,24.0,0.,24.0,0.,24.0,0.,24.0
1979-07-01 14:50:11.260 ,1,1,0.,24.0,0.,24.0,0.,24.0,0.,24.0
1979-07-01 14:50:35.250 ,2,1,0.,24.0,0.,24.0,0.,24.0,0.,24.0
1979-07-01 14:50:59.250 ,6,1,0.,24.0,0.,24.0,0.,24.0,0.,24.0
1979-07-01 14:51:23.250 ,5,1,17.,24.0,0.,24.0,0.,24.0,0.,24.0
1979-07-01 14:51:47.250 ,1,1,0.,24.0,0.,24.0,0.,24.0,0.,24.0
1979-07-01 14:52:11.250 ,2,1,0.,24.0,0.,24.0,0.,24.0,0.,24.0
1979-07-01 14:52:35.250 ,6,1,0.,24.0,0.,24.0,0.,24.0,0.,24.0
1979-07-01 14:52:59.250 ,5,1,13.,24.0,0.,24.0,0.,24.0,0.,24.0
1979-07-01 14:53:23.250 ,1,1,1.,24.0,0.,24.0,0.,24.0,0.,24.0
1979-07-01 14:53:47.250 ,0,0,0.,24.0,0.,24.0,0.,24.0,0.,24.0
1979-07-01 14:54:11.250 ,0,0,1.,24.0,0.,24.0,0.,24.0,0.,24.0
1979-07-01 14:54:35.250 ,5,1,14.,24.0,0.,24.0,0.,24.0,0.,24.0
1979-07-01 14:54:59.250 ,5,0,0.,24.0,0.,24.0,2.,24.0,0.,24.0
1979-07-01 14:55:23.250 ,4,1,0.,24.0,0.,24.0,0.,24.0,0.,24.0
1979-07-01 14:55:47.250 ,4,0,0.,24.0,0.,24.0,0.,24.0,0.,24.0
1979-07-01 14:56:11.250 ,3,1,0.,24.0,0.,24.0,0.,24.0,0.,24.0
1979-07-01 14:56:35.250 ,3,0,0.,24.0,1.,24.0,0.,24.0,0.,24.0